Hourly Data Report for July 24, 2021

KUGLUKTUK A
NUNAVUT
Current Station Operator: NAVCAN

67°49'00.000" N
115°08'38.000" W
22.60 m
2300903
71938
YCO

Download Data

Hourly Data (July 2021)
Hourly Data Report for July 24, 2021
TIME
LST
Temp Definition
°C
Dew Point Definition
°C
Rel Hum Definition
%
Precip. Amount Definition
mm

Wind Dir Definition
10's deg

Wind Spd Definition
km/h
Visibility Definition
km
Stn Press Definition
kPa
Hmdx Definition


Wind Chill Definition


Weather Definition


00:00 7.5 2.5 71   33 26 24.1 101.13     LegendNANA
01:00 7.0 4.0 81   35 27 24.1 101.17     Rain Showers
02:00 6.9 3.2 77   34 20 24.1 101.18     Mostly Cloudy
03:00 6.6 3.9 83   34 21 24.1 101.21     LegendNANA
04:00 7.1 3.3 77   34 23 24.1 101.23     LegendNANA
05:00 7.3 3.7 78   34 20 24.1 101.23     Mostly Cloudy
06:00 7.4 4.1 80   33 20 24.1 101.24     LegendNANA
07:00 7.6 3.1 73   31 18 24.1 101.25     LegendNANA
08:00 8.0 3.1 71   31 10 24.1 101.25     Mostly Cloudy
09:00 8.8 2.9 66   34 11 24.1 101.24     LegendNANA
10:00 9.3 3.1 65   31 9 24.1 101.24     LegendNANA
11:00 9.6 3.0 63   36 9 24.1 101.23     Mostly Cloudy
12:00 10.3 3.4 62   34 9 24.1 101.20     LegendNANA
13:00 11.0 2.5 56   33 17 24.1 101.19     LegendNANA
14:00 11.6 2.7 54   33 18 24.1 101.17     Cloudy
15:00 11.3 2.4 54   34 18 24.1 101.16     LegendNANA
16:00 11.8 2.6 53   33 16 24.1 101.12     LegendNANA
17:00 13.3 2.5 48   33 18 24.1 101.08     Mainly Clear
18:00 12.5 3.3 53   6 5 24.1 101.06     LegendNANA
19:00 12.0 3.5 56   9 10 24.1 101.02     LegendNANA
20:00 11.7 3.8 58   10 8 24.1 100.98     Clear
21:00 10.9 3.4 60   10 8 24.1 100.95     LegendNANA
22:00 9.5 4.1 69   11 4 24.1 100.91     LegendNANA
23:00 8.8 3.8 70   9 4 24.1 100.92     Mainly Clear

Notes on Data Quality.

Legend

  • E = Estimated
  • M = Missing
  • NA = Not Available*
  • [empty] = Indicates an unobserved value
Date modified: